Location: Campbell Lake
(32.1204°N, 97.6289°W)
Time: 00:21:15
(UTC+00:00)

ARIANE 6 FM1 Upper Stage - Pass Details

Date: 15 December 2025
Orbit: 522 x 610 km, 62.0° (Epoch: 16 January)

Event Time Altitude Azimuth Distance (km) Brightness Sun altitude
Rises 11:14:46 0° 182° (S) 2,721 6.3 -26.6°
Reaches altitude 10° 11:17:20 10° 168° (SSE) 1,814 5.5 -26.0°
Maximum altitude 11:20:34 23° 115° (ESE) 1,172 5.0 -25.4°
Drops below altitude 10° 11:23:46 10° 62° (ENE) 1,786 5.8 -24.7°
Sets 11:26:16 0° 47° (NE) 2,668 6.6 -24.2°
